Regional Weather Roundup
Issued by NWS

Current Version | Previous Version | Text Only | Print | Product List | Glossary On
Versions: 1 2 3 4 5 6 7 8 9 10 11 12 13 14 15 16 17 18 19 20 21 22 23 24 25 26 27 28 29 30 31 32 33 34 35 36 37 38 39 40 41 42 43 44 45 46 47 48 49 50
141
ASUS45 KSLC 010510
RWRUT

UTAH REGIONAL WEATHER ROUNDUP
NATIONAL WEATHER SERVICE SALT LAKE CITY UT
1100 PM MDT SUN APR 30 2017

UTZ001>011-023>025-010600-

NORTHERN UTAH

CITY           SKY/WX    TMP DP  RH WIND       PRES   REMARKS
BRIGHAM CITY   PTCLDY    51  41  68 CALM      30.08R
HILL AFB       CLOUDY    51  35  54 SW3       30.07S
LOGAN          CLEAR     49  38  65 SW3       30.06R
OGDEN          MOCLDY    53  32  44 CALM      30.06S
SALT LAKE CITY CLOUDY    56  39  53 NW9       30.07R
TOOELE VALLEY  CLOUDY    46  41  81 SW3       30.09R
WENDOVER       CLOUDY    60  37  42 N7        30.07R
HEBER CITY     CLOUDY    43  30  61 CALM      30.08S
WEST JORDAN    CLOUDY    57  40  53 W8        30.09R

$$

UTZ011>015-024>027-010600-

CENTRAL/NORTHEAST UTAH

CITY           SKY/WX    TMP DP  RH WIND       PRES   REMARKS
PROVO AIRPORT  CLOUDY    52  37  56 S3        30.08R
MOAB/CANYONLAN CLEAR     57  24  28 NW13      30.01R
DELTA          MOCLDY    50  28  43 E3        30.06S
PRICE          CLOUDY    48  26  42 NW5       30.08S
ROOSEVELT      CLEAR     48  28  46 SW6       30.07R
VERNAL         CLOUDY    49  26  41 N6        30.04S

$$

UTZ013>016-019>022-027-010600-

SOUTHERN UTAH

CITY           SKY/WX    TMP DP  RH WIND       PRES   REMARKS
BRYCE CANYON   PTCLDY    32  22  66 W5        30.18R WCI  27
CEDAR CITY     PTCLDY    49  22  34 S7        30.07R
MILFORD        MOCLDY    48  28  46 S5        30.06R
ST GEORGE      MOCLDY    64  19  17 S3        29.98S
HANKSVILLE     CLEAR     50  21  32 NE8       30.07S
BLANDING       PTCLDY    49  16  26 SW5       30.15F

$$

REGIONAL REPORTS     COLORADO/ARIZONA

CITY           SKY/WX    TMP DP  RH WIND       PRES   REMARKS
CRAIG, CO      CLOUDY    46  28  49 NW14      30.06R
GRAND JUNCTION CLOUDY    52  19  27 NW5       30.03R
RIFLE, CO      CLOUDY    49  26  41 W6        30.05S
MONTROSE, CO   CLOUDY    47  26  44 SE3       30.08S
CORTEZ, CO     PTCLDY    43  21  41 E8        30.08R
COLORADO CITY    N/A     45  28  53 S5        30.11R
PAGE, AZ       CLEAR     60  21  22 W5        30.02R
GRAND CANYON   CLEAR     34  15  46 CALM      30.16S HAZE
KINGMAN, AZ    CLEAR     54  18  24 S8        30.03S
FLAGSTAFF, AZ  CLEAR     44  14  29 CALM      30.16S

$$

REGIONAL REPORTS    NEVADA/IDAHO/WYOMING

CITY           SKY/WX    TMP DP  RH WIND       PRES   REMARKS
LAS VEGAS, NV  CLEAR     77   8   7 SW7       29.92R
ELY, NY        CLEAR     43  26  51 W8        30.15R
ELKO, NV       CLOUDY    55  34  45 N6        30.11R
POCATELLO, ID  MOCLDY    49  37  63 SW16      30.04R
BURLEY, ID     MOCLDY    51  36  56 W10       30.05S
FORT BRIDGER,    N/A     38  28  69 SW5       30.12S WCI  34
EVANSTON, WY   CLOUDY    40  29  64 SW6       30.12R
ROCK SPRINGS,  CLEAR     41  28  60 W14       30.05F
KEMMERER, WY     N/A     37  30  75 W8        30.09F WCI  31

$$




USA.gov is the U.S. government's official web portal to all federal, state and local government web resources and services.